User: anonymous   Login
Location: Pedimozza
(42.0500°N, 9.3500°E)
Time: 07:06:38
(UTC+00:00)
Language:

Meteor 1-11 Rocket - Orbit

View from above orbital plane
View from above orbital plane
View from above satellite
View from above satellite

Ground track
Ground track

The orbit data is extracted from the following two-line orbital elements,

1  5918U 72022B   19293.90734536 +.00000179 +00000-0 +10025-3 0  9995
2  5918 081.2399 218.0606 0059204 082.5480 278.2410 14.05861748437964
Epoch (UTC): 20 October 2019 21:46:34
Eccentricity: 0.0059204
inclination: 81.2399°
perigee height: 830 km
apogee height: 916 km
right ascension of ascending node: 218.0606°
argument of perigee: 82.5480°
revolutions per day: 14.05861748
mean anomaly at epoch: 278.2410°
orbit number at epoch: 43796

The dashed part of the orbit path shows where the satellite is in the earth's shadow,  

DLR